Weather History for Keahole Point, HI

Change the Weather History Date:

Tuesday, November 6, 2012

  Actual Average Record
Temperature  
Mean Temperature 80 °F -  
Max Temperature 84 °F 82 °F 91 °F (1982)
Min Temperature 75 °F 71 °F 68 °F (1992)
Cooling Degree Days 14    
Growing Degree Days 30 (Base 50)    
Moisture  
Dew Point 66 °F    
Average Humidity 63    
Maximum Humidity 69    
Minimum Humidity 54    
Precipitation  
Precipitation 0.00 in - - ()
Sea Level Pressure  
Sea Level Pressure 29.88 in    
Wind  
Wind Speed 7 mph (SSE)    
Max Wind Speed 13 mph    
Max Gust Speed -    
Visibility 10 miles    
Events      
Averages and records for this station are not official NWS values.
T = Trace of Precipitation, MM = Missing Value Source: NWS Daily Summary

Daily Weather History Graph

Daily Weather History Graph

Search for Another Location

Airport:

Trip Planner

Search our weather history database for the weather conditions in past years. The results will help you decide how hot, cold, wet, or windy it might be!

Date:

Astronomy

Nov. 06, 2012 Rise Set
Actual Time 6:28 AM HST 5:47 PM HST
Civil Twilight 6:05 AM HST 6:10 PM HST
Nautical Twilight 5:38 AM HST 6:36 PM HST
Astronomical Twilight 5:12 AM HST 7:02 PM HST
Moon No Moon Rise 12:34 PM HST (11/6)
Length of Visible Light 12h 04m
Length of Day
11h 19m
Waning Gibbous, 51% of the Moon is Illuminated
Nov 6
Waning Gibbous
Nov 6
Last Quarter
Nov 13
New
Nov 20
First Quarter
Nov 28
Full

Hourly Weather History & Observations

Time (HST) Temp. Heat Index Dew Point Humidity Pressure Visibility Wind Dir Wind Speed Gust Speed Precip Events Conditions
12:23 AM 78.8 °F - 66.2 °F 65% 29.89 in 10.0 mi ESE 8.1 mph - N/A   Overcast
12:44 AM 78.8 °F - 66.2 °F 65% 29.88 in 10.0 mi SE 6.9 mph - N/A   Overcast
12:53 AM 79.0 °F - 66.9 °F 66% 29.88 in 10.0 mi SE 9.2 mph - N/A   Overcast
1:53 AM 78.1 °F - 66.9 °F 68% 29.88 in 10.0 mi ESE 9.2 mph - N/A   Mostly Cloudy
2:53 AM 78.1 °F - 64.9 °F 64% 29.87 in 10.0 mi ESE 8.1 mph - N/A   Scattered Clouds
3:53 AM 77.0 °F - 64.9 °F 66% 29.86 in 10.0 mi ESE 6.9 mph - N/A   Clear
4:53 AM 75.9 °F - 64.9 °F 69% 29.87 in 10.0 mi SE 5.8 mph - N/A   Partly Cloudy
5:53 AM 75.0 °F - 64.0 °F 69% 29.87 in 10.0 mi SSE 3.5 mph - N/A   Clear
6:53 AM 75.0 °F - 62.1 °F 64% 29.89 in 10.0 mi North 3.5 mph - N/A   Clear
7:51 AM 78.8 °F - 64.4 °F 61% 29.90 in 10.0 mi Calm Calm - N/A   Mostly Cloudy
7:53 AM 78.1 °F - 64.9 °F 64% 29.91 in 10.0 mi ESE 6.9 mph - N/A   Clear
8:53 AM 81.0 °F 83.8 °F 68.0 °F 65% 29.91 in 10.0 mi South 6.9 mph - N/A   Clear
9:53 AM 82.0 °F 85.5 °F 69.1 °F 65% 29.92 in 10.0 mi WSW 8.1 mph - N/A   Scattered Clouds
10:53 AM 82.9 °F 87.0 °F 70.0 °F 65% 29.91 in 10.0 mi WSW 6.9 mph - N/A   Partly Cloudy
11:53 AM 84.0 °F 88.4 °F 70.0 °F 63% 29.88 in 10.0 mi SW 9.2 mph - N/A   Clear
12:53 PM 84.9 °F 88.8 °F 69.1 °F 59% 29.86 in 10.0 mi South 10.4 mph - N/A   Partly Cloudy
1:53 PM 84.0 °F 87.0 °F 68.0 °F 58% 29.83 in 10.0 mi South 10.4 mph - N/A   Partly Cloudy
2:53 PM 82.9 °F 85.8 °F 68.0 °F 60% 29.83 in 10.0 mi South 12.7 mph - N/A   Mostly Cloudy
3:53 PM 82.0 °F 84.5 °F 66.9 °F 60% 29.83 in 10.0 mi South 12.7 mph - N/A   Clear
4:53 PM 82.0 °F 84.9 °F 68.0 °F 62% 29.84 in 10.0 mi South 10.4 mph - N/A   Partly Cloudy
5:53 PM 81.0 °F 83.3 °F 66.9 °F 62% 29.86 in 10.0 mi SSE 4.6 mph - N/A   Mostly Cloudy
6:53 PM 80.1 °F 82.3 °F 66.9 °F 64% 29.88 in 10.0 mi SE 5.8 mph - N/A   Clear
7:53 PM 79.0 °F - 64.0 °F 60% 29.91 in 10.0 mi NNE 6.9 mph - N/A   Clear
8:53 PM 79.0 °F - 61.0 °F 54% 29.91 in 10.0 mi SW 5.8 mph - N/A   Clear
9:50 PM 78.8 °F - 62.6 °F 57% 29.93 in 10.0 mi NNE 3.5 mph - N/A   Mostly Cloudy
9:53 PM 79.0 °F - 63.0 °F 58% 29.93 in 10.0 mi Calm Calm - N/A   Mostly Cloudy
10:53 PM 78.1 °F - 66.0 °F 66% 29.93 in 10.0 mi Calm Calm - N/A   Mostly Cloudy
11:53 PM 78.1 °F - 66.9 °F 68% 29.91 in 10.0 mi East 6.9 mph - N/A   Partly Cloudy